Location: Wingville
(42.9917°N, 90.4915°W)
Time: 23:18:13
(UTC+00:00)

CUBESAT XI-V - Pass Details

Date: 04 July 2022
Orbit: 668 x 690 km, 98.1° (Epoch: 16 August)

Event Time Altitude Azimuth Distance (km) Brightness Sun altitude
Exits shadow 08:02:22 40° 196° (SSW) 996 ? -18.9°
Maximum altitude 08:03:52 62° 259° (W) 756 ? -18.8°
Drops below altitude 10° 08:08:26 10° 340° (NNW) 2,106 ? -18.4°
Sets 08:10:42 0° 344° (NNW) 3,023 ? -18.2°
